Location: Newark
(51.5033°N, 0.1199°W)
Time: 05:27:10
(UTC+00:00)

PicSat - Pass Details

Date: 23 September 2019
Orbit: 486 x 499 km, 97.5° (Epoch: 15 October)

Event Time Altitude Azimuth Distance (km) Brightness Sun altitude
Exits shadow 21:58:34 15° 333° (NNW) 1,450 ? -33.4°
Drops below altitude 10° 21:59:14 10° 337° (NNW) 1,716 ? -33.4°
Sets 22:01:23 0° 343° (NNW) 2,606 ? -33.6°
